POLAR

Last updated on Wed Sep 17 2025 00:03:34 GMT+0000 (Coordinated Universal Time)

1 23802U 96013A 25258.84154403 .00000222 00000+0 00000+0 0 9999 2 23802 79.5487 230.0952 6202349 218.3469 75.0712 1.29846619141292
UTC large
Height (km)
Speed (km/s)
/
Latitude / Longitude
Inclination (degrees)
Orbital Period (minutes)
Azimuth
Elevation
Range (km)
Doppler Factor

Next 0 passes for location: London (51.5072 / 0.1276)

Sorry there are no passes over London.